Regional Weather Roundup
Issued by NWS

Home | Current Version | Previous Version | Text Only | Print | Product List | Glossary Off
Versions: 1 2 3 4 5 6 7 8 9 10 11 12 13 14 15 16 17 18 19 20 21 22 23 24 25 26 27 28 29 30 31 32 33 34 35 36 37 38 39 40 41 42 43 44 45 46 47 48 49 50

000
ASUS43 KIND 030509
RWRIN

WEATHER ROUNDUP FOR INDIANA
NATIONAL WEATHER SERVICE INDIANAPOLIS IN
100 AM EDT WED JUN 03 2015

NOTE: "FAIR" INDICATES FEW OR NO CLOUDS BELOW 12,000 FEET WITH NO
SIGNIFICANT WEATHER AND/OR OBSTRUCTIONS TO VISIBILITY.

* - STATION DOES NOT REPORT WEATHER SUCH AS PRECIPITATION OR FOG.

+ - STATION NOT QUALITY CONTROLLED BY THE NATIONAL WEATHER SERVICE.
    USE DATA WITH CAUTION...ESPECIALLY DEWPOINT AND RELATIVE
    HUMIDITY OBSERVATIONS.

INZ001>003-010>013-019-020-030600-
NORTHWEST INDIANA

CITY           SKY/WX    TMP DP  RH WIND       PRES   REMARKS
GARY /AIRPORT/ CLEAR     51  49  93 CALM      30.10F
KNOX *+        CLEAR     54  54 100 SE5       30.10F
LA PORTE +     CLEAR     55  52  90 CALM      30.12S
MICHIGAN CITY+ CLEAR     48  48 100 CALM      30.11S
MONTICELLO +   MOCLDY    54  54 100 CALM      30.10S
VALPARAISO     CLEAR     52  49  89 NE3       30.11S

$$

LMZ046-743>745-030600-
SOUTHERN LAKE MICHIGAN

STATION/POSITION TIME  TEMP    WIND        PRES    WAVE
                       AIR SEA DIR/SP/G            HT
                 (UTC) (F)     (DEG/KT/KT) (MB)    (FT)
BURNS HARBOR     0500           80/  4/  5 1020.0S
MICHIGAN CITY    0500   56     100/  7/  9   N/A
5NW MICH CITY    0500   56 56  110/  4/  6   N/A     1

$$

INZ004-005-014>016-021>024-030600-
NORTH CENTRAL INDIANA

CITY           SKY/WX    TMP DP  RH WIND       PRES   REMARKS
GOSHEN         CLEAR     53  45  74 E5        30.13R
LOGANSPORT +   CLOUDY    55  50  82 E6        30.11S
PERU/GRISSOM   MOCLDY    57  52  83 E3        30.10S
ROCHESTER +    CLEAR     55  50  82 E6        30.12S
SOUTH BEND     CLEAR     60  49  66 SE9       30.13S
WARSAW +       CLEAR     54  46  76 E7        30.13R

$$

INZ006>009-017-018-025>027-030600-
NORTHEAST INDIANA

CITY           SKY/WX    TMP DP  RH WIND       PRES   REMARKS
ANGOLA *+      CLEAR     52  43  71 E5        30.14F
AUBURN +       CLEAR     50  45  81 CALM      30.13S
FORT WAYNE     CLEAR     51  45  79 NE7       30.12F
HUNTINGTON +   CLEAR     52  48  84 CALM      30.12S

$$

INZ028-029-035-036-043>045-051>053-030600-
WEST CENTRAL INDIANA

CITY           SKY/WX    TMP DP  RH WIND       PRES   REMARKS
LAFAYETTE      CLEAR     51  50  96 CALM      30.10S FOG
TERRE HAUTE    CLEAR     57  52  83 SE6       30.10R

$$

INZ030>032-037>040-046>048-054>057-064-065-030600-
CENTRAL INDIANA

CITY           SKY/WX    TMP DP  RH WIND       PRES   REMARKS
CP ATTERBURY + CLEAR     50  50 100 CALM      30.11S FOG
FISHERS *+     CLEAR     52  52 100 CALM      30.10S
FRANKFORT +    CLEAR     52  52 100 CALM      30.11F FOG
GREENWOOD *+   CLEAR     55  50  82 CALM      30.10S
INDIANAPOLIS   PTCLDY    57  50  77 CALM      30.08S
-EAGLE CREEK   CLEAR     55  51  86 CALM      30.09F
KOKOMO *+      MOCLDY    55  52  88 E6        30.11S
MARION +       CLEAR     55  48  76 E6        30.11S
MT COMFORT *+  CLEAR     52 N/A N/A SE3       30.10S
SHELBYVILLE    CLEAR     55  51  86 SE3       30.09F
ZIONSVILLE +   CLEAR     54  50  87 W3        30.11S

$$

INZ033-034-041-042-049-050-058-059-030600-
EAST CENTRAL INDIANA

CITY           SKY/WX    TMP DP  RH WIND       PRES   REMARKS
MUNCIE         CLEAR     54  50  86 SE8       30.10F

$$

INZ060-061-067>069-081>083-085>088-030600-
SOUTHWEST INDIANA

CITY           SKY/WX    TMP DP  RH WIND       PRES   REMARKS
EVANSVILLE     MOCLDY    56  54  93 CALM      30.08S FOG
HUNTINGBURG *+ MOCLDY    57  54  88 CALM      30.09S
WASHINGTON +   PTCLDY    57  53  85 E6        30.08S

$$

INZ062-063-066-070>080-084-089>092-030600-
SOUTH CENTRAL AND SOUTHEAST INDIANA

CITY           SKY/WX    TMP DP  RH WIND       PRES   REMARKS
BLOOMINGTON    CLEAR     55  51  86 E3        30.09F
MADISON *+     CLOUDY    59  50  72 NE3       30.11F
NORTH VERNON + CLEAR     52  52 100 CALM      30.10F
SEYMOUR +      CLEAR     57  52  82 E5        30.09F

$$



USA.gov is the U.S. government's official web portal to all federal, state and local government web resources and services.